Location: Hradec Kralove
(50.2170°N, 15.8330°E)
Time: 10:05:30
(UTC+01:00)

ISS - Pass Details

Date: 21 February 2026
Orbit: 416 x 426 km, 51.6° (Epoch: 9 March)

Event Time Altitude Azimuth Distance (km) Brightness Sun altitude
Exits shadow 05:46:16 20° 276° (W) 1,021 -2.5 -11.9°
Maximum altitude 05:48:25 67° 356° (N) 455 -3.7 -11.6°
Drops below altitude 10° 05:51:45 10° 80° (E) 1,494 0.5 -11.1°
Sets 05:53:51 0° 83° (E) 2,357 2.0 -10.7°
